Flag for United Kingdom

Past Weather in Skegness, England, United Kingdom — Yesterday and Last 2 Weeks

Now
60 °F

Cool.


Feels Like: 60 °F
Forecast: 64 / 54 °F
Wind: 6 mph from West

Location: Wainfleet

Current Time: Jul 14, 2020 at 2:16:07 am

Latest Report: Jul 14, 2020 at 1:00 am


Visibility: N/A

Pressure: 30.02 "Hg

Humidity: 96%

Dew Point: 59 °F

Location of SkegnessLocation

Past Weather in Skegness — Graph

°F

Skegness Temperature Yesterday

Maximum temperature yesterday: 71 °F (at 3:00 pm)
Minimum temperature yesterday: 51 °F (at 4:00 am)
Average temperature yesterday: 62 °F

High & Low Weather Summary for the Past Weeks

 TemperatureHumidityPressure
High71 °F (Jul 13, 3:00 pm)100% (Jul 8, 4:00 am)30.38 "Hg (Jul 8, 4:00 am)
Low45 °F (Jul 12, 4:00 am)41% (Jul 5, 1:00 pm)29.58 "Hg (Jul 5, 4:00 am)
Average59 °F81%29.92 "Hg
* Reported Jun 29 1:00 am — Jul 14 1:00 am, Skegness. Weather by CustomWeather, © 2020

Note: Actual official high and low records may vary slightly from our data, if they occured in-between our weather recording intervals... More about our weather records

Skegness Weather History for the Previous 24 Hours

Scroll right to see more
 ConditionsComfort  
Time TempWeatherWind HumidityBarometerVisibility
1:00 am
Tue, Jul 14
60 °FCool.6 mph96%30.02 "HgN/A
12:00 am61 °FCool.5 mph93%30.03 "HgN/A
11:00 pm
Mon, Jul 13
62 °FCool.7 mph91%30.04 "HgN/A
10:00 pm62 °FMild.8 mph90%30.05 "HgN/A
9:00 pm63 °FMild.10 mph86%30.05 "HgN/A
8:00 pm65 °FMild.13 mph83%30.05 "HgN/A
7:00 pm65 °FMild.12 mph79%30.06 "HgN/A
6:00 pm67 °FMild.17 mph71%30.06 "HgN/A
5:00 pm69 °FMild.18 mph70%30.08 "HgN/A
4:00 pm68 °FMild.15 mph69%30.10 "HgN/A
3:00 pm71 °FMild.16 mph63%30.11 "HgN/A
2:00 pm68 °FMild.13 mph70%30.13 "HgN/A
1:00 pm69 °FMild.12 mph67%30.15 "HgN/A
12:00 pm64 °FMild.10 mph71%30.18 "HgN/A
11:00 am65 °FMild.10 mph67%30.18 "HgN/A
10:00 am65 °FMild.12 mph65%30.19 "HgN/A
9:00 am62 °FCool.12 mph71%30.20 "HgN/A
8:00 am60 °FCool.9 mph79%30.21 "HgN/A
7:00 am57 °FCool.8 mph84%30.22 "HgN/A
6:00 am55 °FCool.7 mph91%30.22 "HgN/A
5:00 am53 °FCool.7 mph95%30.23 "HgN/A
4:00 am51 °FCool.6 mph94%30.23 "HgN/A
3:00 am55 °FCool.8 mph92%30.25 "HgN/A
2:00 am57 °FCool.10 mph88%30.26 "HgN/A
Weather by CustomWeather, © 2020

See weather overview